Location: Arrodets-la-Barthe
(43.0306°N, 0.2829°E)
Time: 19:57:49
(UTC+00:00)

NOAA 19 - Visible Passes

Search period start: 30 May 2024 00:00
Search period end: 09 June 2024 00:00
Orbit: 839 x 859 km, 99.0° (Epoch: 30 May)

Date Brightness Start Highest point End Pass type
(mag) Time Alt. Az. Time Alt. Az. Time Alt. Az.
30 May 6.3 21:16:47 10° SSW 21:21:51 39° W 21:26:59 10° NNW visible
31 May 5.9 21:04:12 10° S 21:09:28 50° W 21:14:49 10° NNW visible
01 Jun 5.5 20:51:43 10° S 20:57:08 65° WSW 21:02:36 10° NNW visible
02 Jun 5.3 20:39:20 10° SSE 20:44:48 82° WSW 20:50:20 10° NNW visible
02 Jun 7.8 22:25:19 10° W 22:26:14 10° W 22:27:10 10° WNW visible
03 Jun 5.2 20:27:02 10° SSE 20:32:29 79° ENE 20:38:01 10° NNW visible
03 Jun 7.6 22:10:57 10° WSW 22:13:44 14° W 22:16:33 10° WNW visible
04 Jun 5.4 20:14:50 10° SSE 20:20:12 62° ENE 20:25:39 10° N visible
04 Jun 7.4 21:57:35 10° SW 22:01:16 18° W 22:05:00 10° NW visible
05 Jun 5.6 20:02:43 10° SE 20:07:57 49° ENE 20:13:14 10° N visible
05 Jun 7.1 21:44:31 10° SW 21:48:49 23° W 21:53:10 10° NW visible
06 Jun 6.7 21:31:39 10° SSW 21:36:23 30° W 21:41:11 10° NW visible
07 Jun 6.4 21:18:56 10° SSW 21:23:59 38° W 21:29:07 10° NNW visible
08 Jun 6.0 21:06:20 10° S 21:11:37 49° W 21:16:57 10° NNW visible
